Pleasanton, CA

6:24 PM PST on December 03, 2016 (GMT -0800)
Livermore Municipal

Weather History for KLVK - January, 2014

Change the Weather History Date:

Wednesday, January 8, 2014

  Actual Average Record
Temperature  
Mean Temperature 53 °F 46 °F  
Max Temperature 59 °F 56 °F 67 °F (1990)
Min Temperature 47 °F 37 °F 24 °F (1937)
Degree Days  
Heating Degree Days 12 19  
Month to date heating degree days 108 152  
Since 1 July heating degree days 959 1183  
Cooling Degree Days 0 0  
Month to date cooling degree days 0 0  
Year to date cooling degree days 0 0  
Growing Degree Days 4 (Base 50)    
Moisture  
Dew Point 48 °F    
Average Humidity 79    
Maximum Humidity 96    
Minimum Humidity 62    
Precipitation  
Precipitation 0.00 in 0.13 in 0.98 in (1979)
Month to date precipitation 0.00 1.01  
Year to date precipitation 0.00 1.01  
Since 1 July precipitation 2.38  
Sea Level Pressure  
Sea Level Pressure 30.18 in    
Wind  
Wind Speed 4 mph (WSW)    
Max Wind Speed 10 mph    
Max Gust Speed 14 mph    
Visibility 7 miles    
Events      
T = Trace of Precipitation, MM = Missing Value Source: NWS Daily Summary

Daily Weather History Graph

Daily Weather History Graph

Search for Another Location

Airport or City:

Trip Planner

Search our weather history database for the weather conditions in past years. The results will help you decide how hot, cold, wet, or windy it might be!

Date:

Astronomy

Jan. 08, 2014 Rise Set
Actual Time 7:22 AM PST 5:05 PM PST
Civil Twilight 6:53 AM PST 5:34 PM PST
Nautical Twilight 6:21 AM PST 6:07 PM PST
Astronomical Twilight 5:49 AM PST 6:38 PM PST
Moon 11:57 AM PST (1/8) 12:37 AM PST (1/8)
Length of Visible Light 10h 40m
Length of Day
9h 42m
First Quarter, 57% of the Moon is Illuminated
Jan 8
First Quarter
Jan 15
Full
Jan 23
Last Quarter
Jan 30
New
Feb 6
First Quarter

Hourly Weather History & Observations

Time (PST) Temp. Dew Point Humidity Pressure Visibility Wind Dir Wind Speed Gust Speed Precip Events Conditions
12:06 AM 52.0 °F 48.0 °F 86% 30.19 in 2.0 mi Calm Calm - N/A   Overcast
12:16 AM 51.1 °F 48.9 °F 92% 30.19 in 1.8 mi Calm Calm - N/A   Overcast
12:49 AM 51.8 °F 50.0 °F 94% 30.18 in 1.2 mi Calm Calm - N/A   Overcast
12:53 AM 52.0 °F 50.0 °F 93% 30.18 in 1.5 mi Calm Calm - N/A   Overcast
1:07 AM 51.1 °F 48.9 °F 92% 30.18 in 2.5 mi SSE 3.5 mph - N/A   Overcast
1:16 AM 52.0 °F 50.0 °F 93% 30.18 in 3.0 mi South 3.5 mph - N/A   Overcast
1:43 AM 52.0 °F 50.0 °F 93% 30.18 in 2.5 mi Calm Calm - N/A   Overcast
1:53 AM 52.0 °F 50.0 °F 93% 30.18 in 2.5 mi Calm Calm - N/A   Overcast
2:00 AM 52.0 °F 50.0 °F 93% 30.18 in 3.0 mi Calm Calm - N/A   Overcast
2:43 AM 52.0 °F 50.0 °F 93% 30.18 in 2.5 mi West 4.6 mph - N/A   Overcast
2:53 AM 52.0 °F 50.0 °F 93% 30.18 in 2.5 mi West 4.6 mph - N/A   Overcast
3:22 AM 52.0 °F 50.0 °F 93% 30.17 in 4.0 mi SW 4.6 mph - N/A   Overcast
3:53 AM 52.0 °F 50.0 °F 93% 30.16 in 8.0 mi Calm Calm - N/A   Overcast
4:06 AM 52.0 °F 50.0 °F 93% 30.16 in 8.0 mi Calm Calm - N/A   Overcast
4:21 AM 52.0 °F 50.0 °F 93% 30.16 in 7.0 mi Calm Calm - N/A   Overcast
4:53 AM 52.0 °F 50.0 °F 93% 30.17 in 7.0 mi SW 4.6 mph - N/A   Overcast
5:53 AM 53.1 °F 50.0 °F 89% 30.18 in 9.0 mi Calm Calm - N/A   Overcast
6:41 AM 52.0 °F 50.0 °F 93% 30.20 in 9.0 mi South 3.5 mph - N/A   Overcast
6:53 AM 52.0 °F 48.9 °F 89% 30.20 in 10.0 mi South 4.6 mph - N/A   Overcast
7:53 AM 52.0 °F 48.9 °F 89% 30.19 in 8.0 mi SSE 4.6 mph - N/A   Overcast
8:53 AM 53.1 °F 48.9 °F 86% 30.20 in 10.0 mi Calm Calm - N/A   Overcast
9:53 AM 54.0 °F 48.9 °F 83% 30.22 in 10.0 mi WSW 4.6 mph - N/A   Overcast
10:53 AM 55.0 °F 48.0 °F 77% 30.22 in 10.0 mi WSW 10.4 mph - N/A   Overcast
11:53 AM 57.0 °F 48.0 °F 72% 30.20 in 10.0 mi WSW 9.2 mph - N/A   Overcast
12:53 PM 59.0 °F 46.9 °F 64% 30.16 in 10.0 mi SW 6.9 mph - N/A   Mostly Cloudy
1:53 PM 59.0 °F 48.0 °F 67% 30.15 in 10.0 mi SW 8.1 mph - N/A   Mostly Cloudy
2:22 PM 57.9 °F 46.9 °F 67% 30.14 in 10.0 mi WSW 8.1 mph - N/A   Scattered Clouds
2:53 PM 59.0 °F 46.9 °F 64% 30.14 in 10.0 mi SW 5.8 mph - N/A   Overcast
3:53 PM 57.9 °F 46.9 °F 67% 30.15 in 10.0 mi West 5.8 mph - N/A   Partly Cloudy
4:30 PM 55.9 °F 46.9 °F 72% 30.16 in 10.0 mi West 9.2 mph - N/A   Mostly Cloudy
4:51 PM 55.4 °F 46.4 °F 72% 30.17 in 10.0 mi WNW 9.2 mph - N/A   Scattered Clouds
4:53 PM 54.0 °F 48.0 °F 80% 30.17 in 10.0 mi West 9.2 mph - N/A   Scattered Clouds
5:31 PM 53.1 °F 48.0 °F 83% 30.17 in 10.0 mi WNW 5.8 mph - N/A   Mostly Cloudy
5:53 PM 51.1 °F 46.0 °F 83% 30.18 in 10.0 mi WNW 6.9 mph - N/A   Scattered Clouds
6:53 PM 51.1 °F 46.9 °F 86% 30.19 in 10.0 mi Calm Calm - N/A   Mostly Cloudy
7:16 PM 51.1 °F 46.9 °F 86% 30.19 in 8.0 mi Calm Calm - N/A   Scattered Clouds
7:18 PM 50.0 °F 46.9 °F 89% 30.19 in 8.0 mi Calm Calm - N/A   Mostly Cloudy
7:53 PM 48.0 °F 45.0 °F 89% 30.21 in 4.0 mi WNW 3.5 mph - N/A   Mostly Cloudy
8:53 PM 50.0 °F 46.9 °F 89% 30.22 in 8.0 mi Calm Calm - N/A   Overcast
9:53 PM 51.1 °F 48.0 °F 89% 30.21 in 10.0 mi Calm Calm - N/A   Overcast
10:53 PM 51.1 °F 46.9 °F 86% 30.21 in 10.0 mi Calm Calm - N/A   Overcast
11:23 PM 48.9 °F 46.0 °F 90% 30.21 in 7.0 mi Calm Calm - N/A   Scattered Clouds
11:53 PM 46.9 °F 45.0 °F 93% 30.20 in 5.0 mi Calm Calm - N/A   Clear